N801WT EGPN-EGPK

Flight info

Callsign N801WT
Flight time N/A
Altitude 2000
Route VFR TRANSIT VIA KIRCKCALDY HARBOUR VRP / AURTHERS SEAT VRP / TLA VOR / DCT EGPK
Aircraft H60/L-SDE3FGHIRWY/C

Departure

Time 2026-04-15 19:36
Airport Dundee Airport (EGPN)

Arrival

Time N/A
Airport Glasgow Prestwick Airport (EGPK)
Time Latitude Longitude Altitude Speed Heading
2026-04-15 19:09 56.45368 -3.01564 18 ft 0 kts 41°
2026-04-15 19:36 56.45369 -3.01566 18 ft 1 kts 122°
2026-04-15 19:36 56.45355 -3.01548 31 ft 9 kts 136°
2026-04-15 19:36 56.45197 -3.01332 189 ft 54 kts 134°
2026-04-15 19:36 56.44799 -3.01361 719 ft 69 kts 218°
2026-04-15 19:37 56.44469 -3.02247 1027 ft 94 kts 231°
2026-04-15 19:37 56.44041 -3.03218 1037 ft 98 kts 216°
2026-04-15 19:37 56.43355 -3.03435 954 ft 102 kts 180°
2026-04-15 19:37 56.42688 -3.03408 1103 ft 93 kts 188°
2026-04-15 19:38 56.42033 -3.03579 1191 ft 97 kts 191°
2026-04-15 19:38 56.41331 -3.03867 1041 ft 110 kts 195°
2026-04-15 19:38 56.40591 -3.04208 990 ft 107 kts 196°
2026-04-15 19:38 56.39864 -3.04548 993 ft 107 kts 196°
2026-04-15 19:39 56.39152 -3.04913 983 ft 106 kts 196°
2026-04-15 19:39 56.38450 -3.05292 992 ft 105 kts 196°
2026-04-15 19:39 56.37745 -3.05647 996 ft 105 kts 196°
2026-04-15 19:39 56.37032 -3.05961 988 ft 109 kts 196°
2026-04-15 19:40 56.36297 -3.06286 987 ft 108 kts 196°
2026-04-15 19:40 56.35572 -3.06637 989 ft 108 kts 196°
2026-04-15 19:40 56.34861 -3.06990 993 ft 105 kts 196°
2026-04-15 19:40 56.34146 -3.07335 989 ft 109 kts 196°
2026-04-15 19:41 56.33429 -3.07685 996 ft 106 kts 196°
2026-04-15 19:41 56.32707 -3.08047 994 ft 110 kts 196°
2026-04-15 19:41 56.31980 -3.08413 994 ft 107 kts 196°
2026-04-15 19:41 56.31252 -3.08779 991 ft 109 kts 196°
2026-04-15 19:42 56.30524 -3.09177 993 ft 109 kts 196°
2026-04-15 19:42 56.29795 -3.09566 998 ft 110 kts 196°
2026-04-15 19:42 56.29060 -3.09975 992 ft 111 kts 196°
2026-04-15 19:42 56.28330 -3.10336 988 ft 106 kts 196°
2026-04-15 19:43 56.27619 -3.10685 995 ft 104 kts 196°
2026-04-15 19:43 56.26914 -3.11031 986 ft 105 kts 196°
2026-04-15 19:43 56.26222 -3.11378 990 ft 105 kts 196°
2026-04-15 19:43 56.25485 -3.11694 998 ft 109 kts 196°
2026-04-15 19:44 56.24742 -3.11990 985 ft 110 kts 196°
2026-04-15 19:44 56.24001 -3.12291 995 ft 110 kts 196°
2026-04-15 19:44 56.23266 -3.12581 1010 ft 102 kts 195°
2026-04-15 19:44 56.22620 -3.12739 1049 ft 81 kts 188°
2026-04-15 19:45 56.22123 -3.12866 1273 ft 71 kts 189°
2026-04-15 19:45 56.21643 -3.12988 1243 ft 69 kts 189°
2026-04-15 19:45 56.21158 -3.13145 1263 ft 73 kts 189°
2026-04-15 19:45 56.20674 -3.13296 1257 ft 68 kts 188°
2026-04-15 19:46 56.20203 -3.13466 1244 ft 68 kts 189°
2026-04-15 19:46 56.19731 -3.13628 1239 ft 74 kts 189°
2026-04-15 19:46 56.19224 -3.13735 1243 ft 72 kts 189°
2026-04-15 19:46 56.18710 -3.13841 1244 ft 76 kts 189°
2026-04-15 19:47 56.18171 -3.13912 1246 ft 78 kts 189°
2026-04-15 19:47 56.17625 -3.13968 1248 ft 78 kts 189°
2026-04-15 19:47 56.17087 -3.14035 1251 ft 78 kts 189°
2026-04-15 19:47 56.16544 -3.14113 1253 ft 79 kts 189°
2026-04-15 19:48 56.15977 -3.14194 1235 ft 88 kts 189°
2026-04-15 19:48 56.15325 -3.14289 1244 ft 98 kts 189°
2026-04-15 19:48 56.14632 -3.14390 1247 ft 102 kts 189°
2026-04-15 19:48 56.13922 -3.14512 1248 ft 103 kts 189°
2026-04-15 19:49 56.13204 -3.14642 1250 ft 103 kts 189°
2026-04-15 19:49 56.12493 -3.14758 1252 ft 102 kts 189°
2026-04-15 19:49 56.11796 -3.14849 1256 ft 102 kts 189°
2026-04-15 19:49 56.11091 -3.14950 1255 ft 101 kts 189°
2026-04-15 19:50 56.10390 -3.15055 1257 ft 101 kts 189°
2026-04-15 19:50 56.09688 -3.15152 1257 ft 101 kts 189°
2026-04-15 19:50 56.08990 -3.15249 1257 ft 101 kts 189°
2026-04-15 19:50 56.08284 -3.15364 1257 ft 102 kts 189°
2026-04-15 19:51 56.07576 -3.15495 1258 ft 102 kts 189°
2026-04-15 19:51 56.06868 -3.15604 1259 ft 102 kts 189°
2026-04-15 19:51 56.06159 -3.15690 1259 ft 102 kts 189°
2026-04-15 19:51 56.05456 -3.15786 1261 ft 101 kts 189°
2026-04-15 19:52 56.04764 -3.15896 1263 ft 101 kts 189°
2026-04-15 19:52 56.04061 -3.16026 1263 ft 102 kts 189°
2026-04-15 19:52 56.03354 -3.16162 1263 ft 102 kts 189°
2026-04-15 19:52 56.02645 -3.16282 1263 ft 102 kts 189°
2026-04-15 19:53 56.01935 -3.16406 1266 ft 102 kts 189°
2026-04-15 19:53 56.01229 -3.16542 1264 ft 102 kts 189°
2026-04-15 19:53 56.00536 -3.16658 1263 ft 101 kts 189°
2026-04-15 19:53 55.99839 -3.16758 1264 ft 100 kts 189°
2026-04-15 19:54 55.99145 -3.16853 1264 ft 100 kts 189°
2026-04-15 19:54 55.98453 -3.16943 1265 ft 100 kts 189°
2026-04-15 19:54 55.97755 -3.17032 1264 ft 100 kts 189°
2026-04-15 19:54 55.97058 -3.17120 1266 ft 101 kts 189°
2026-04-15 19:55 55.96357 -3.17240 1266 ft 101 kts 189°
2026-04-15 19:55 55.95664 -3.17375 1265 ft 101 kts 189°
2026-04-15 19:55 55.94957 -3.17495 1270 ft 104 kts 189°
2026-04-15 19:55 55.94354 -3.17910 1676 ft 85 kts 215°
2026-04-15 19:56 55.93857 -3.18211 2195 ft 70 kts 194°
2026-04-15 19:56 55.93361 -3.18388 2261 ft 83 kts 196°
2026-04-15 19:56 55.92796 -3.18582 2246 ft 84 kts 196°
2026-04-15 19:56 55.92216 -3.18760 2259 ft 84 kts 196°
2026-04-15 19:57 55.91640 -3.18944 2244 ft 84 kts 196°
2026-04-15 19:57 55.91066 -3.19142 2259 ft 84 kts 196°
2026-04-15 19:57 55.90490 -3.19371 2246 ft 85 kts 196°
2026-04-15 19:57 55.89907 -3.19602 2258 ft 87 kts 196°
2026-04-15 19:58 55.89311 -3.19835 2255 ft 88 kts 196°
2026-04-15 19:58 55.88718 -3.20070 2253 ft 88 kts 196°
2026-04-15 19:58 55.88118 -3.20308 2249 ft 90 kts 196°
2026-04-15 19:58 55.87455 -3.20570 2248 ft 102 kts 196°
2026-04-15 19:59 55.86742 -3.20855 2246 ft 106 kts 196°
2026-04-15 19:59 55.86009 -3.21132 2251 ft 108 kts 196°
2026-04-15 19:59 55.85269 -3.21387 2254 ft 108 kts 196°
2026-04-15 19:59 55.84539 -3.21638 2254 ft 108 kts 196°
2026-04-15 20:00 55.83802 -3.21900 2257 ft 108 kts 196°
2026-04-15 20:00 55.83063 -3.22158 2256 ft 108 kts 196°
2026-04-15 20:00 55.82327 -3.22422 2252 ft 108 kts 196°
2026-04-15 20:00 55.81600 -3.22704 2257 ft 106 kts 196°
2026-04-15 20:01 55.80880 -3.23000 2252 ft 105 kts 196°
2026-04-15 20:01 55.80165 -3.23292 2250 ft 105 kts 196°
2026-04-15 20:01 55.79447 -3.23560 2250 ft 106 kts 196°
2026-04-15 20:01 55.78722 -3.23820 2251 ft 107 kts 196°
2026-04-15 20:02 55.77990 -3.24089 2250 ft 108 kts 196°
2026-04-15 20:02 55.77255 -3.24361 2249 ft 108 kts 196°
2026-04-15 20:02 55.76529 -3.24627 2241 ft 107 kts 196°
2026-04-15 20:02 55.75795 -3.24900 2247 ft 108 kts 196°
2026-04-15 20:03 55.75065 -3.25182 2247 ft 107 kts 196°
2026-04-15 20:03 55.74344 -3.25468 2243 ft 106 kts 196°
2026-04-15 20:03 55.73630 -3.25749 2256 ft 105 kts 196°
2026-04-15 20:03 55.72906 -3.26032 2249 ft 106 kts 196°
2026-04-15 20:04 55.72190 -3.26319 2257 ft 105 kts 196°
2026-04-15 20:04 55.71479 -3.26606 2257 ft 104 kts 196°
2026-04-15 20:04 55.70771 -3.26887 2271 ft 102 kts 196°
2026-04-15 20:04 55.70188 -3.27111 2282 ft 72 kts 196°
2026-04-15 20:05 55.69726 -3.27333 2290 ft 71 kts 198°
2026-04-15 20:05 55.69233 -3.27574 2321 ft 85 kts 195°
2026-04-15 20:05 55.68644 -3.27828 2243 ft 87 kts 195°
2026-04-15 20:05 55.68091 -3.28060 2417 ft 69 kts 195°
2026-04-15 20:06 55.67682 -3.28281 2793 ft 69 kts 195°
2026-04-15 20:06 55.67172 -3.28520 2606 ft 79 kts 197°
2026-04-15 20:06 55.66627 -3.28772 2526 ft 88 kts 198°
2026-04-15 20:06 55.66018 -3.29055 2475 ft 82 kts 198°
2026-04-15 20:07 55.65568 -3.29299 2859 ft 64 kts 197°
2026-04-15 20:07 55.65099 -3.29570 2961 ft 72 kts 198°
2026-04-15 20:07 55.64629 -3.29856 2989 ft 74 kts 199°
2026-04-15 20:07 55.64118 -3.30196 2808 ft 82 kts 200°
2026-04-15 20:08 55.63540 -3.30494 2459 ft 88 kts 199°
2026-04-15 20:08 55.62976 -3.30738 2408 ft 79 kts 194°
2026-04-15 20:08 55.62406 -3.30913 2578 ft 73 kts 194°
2026-04-15 20:08 55.61890 -3.31084 2661 ft 87 kts 194°
2026-04-15 20:09 55.61292 -3.31265 2716 ft 91 kts 194°
2026-04-15 20:09 55.60756 -3.31431 2738 ft 92 kts 194°
2026-04-15 20:09 55.60736 -3.31437 2737 ft 92 kts 194°
2026-04-15 20:09 55.60095 -3.31628 2746 ft 94 kts 194°
2026-04-15 20:10 55.59234 -3.31870 2757 ft 95 kts 194°
2026-04-15 20:10 55.58806 -3.31983 2792 ft 92 kts 194°
2026-04-15 20:10 55.58178 -3.32129 2796 ft 93 kts 195°
2026-04-15 20:10 55.57681 -3.32751 3021 ft 81 kts 204°
2026-04-15 20:11 55.57174 -3.32883 3429 ft 82 kts 194°
2026-04-15 20:11 55.56576 -3.33158 3025 ft 80 kts 192°
2026-04-15 20:11 55.56124 -3.32993 2725 ft 71 kts 148°
2026-04-15 20:11 55.56151 -3.32367 2821 ft 52 kts 44°
2026-04-15 20:12 55.56390 -3.31948 2538 ft 36 kts 45°
2026-04-15 20:12 55.56483 -3.31792 2570 ft 6 kts 45°
2026-04-15 20:12 55.56549 -3.31672 2619 ft 28 kts 45°
2026-04-15 20:12 55.56672 -3.31414 2546 ft 13 kts 44°
2026-04-15 20:13 55.56697 -3.31361 2481 ft 1 kts 45°
2026-04-15 20:13 55.56713 -3.31333 2477 ft 1 kts 46°
2026-04-15 20:13 55.56720 -3.31319 2468 ft 0 kts 46°
2026-04-15 20:14 55.56720 -3.31318 2471 ft 1 kts 46°
2026-04-15 20:14 55.56813 -3.31123 2479 ft 39 kts 45°
2026-04-15 20:15 55.57083 -3.30406 2209 ft 114 kts 75°
2026-04-15 20:15 55.57663 -3.28906 1394 ft 165 kts 63°
2026-04-15 20:15 55.58040 -3.27071 1395 ft 136 kts 106°
2026-04-15 20:15 55.57442 -3.26412 1603 ft 119 kts 204°
2026-04-15 20:16 55.57197 -3.27183 2181 ft 54 kts 301°
2026-04-15 20:16 55.57330 -3.27609 1902 ft 7 kts 266°
2026-04-15 20:16 55.57336 -3.27632 1924 ft 8 kts 268°
2026-04-15 20:16 55.57337 -3.27735 1901 ft 2 kts 268°
2026-04-15 20:17 55.57337 -3.27729 1871 ft 0 kts 268°
2026-04-15 20:17 55.57337 -3.27728 1868 ft 0 kts 269°
2026-04-15 20:17 55.57355 -3.27589 1889 ft 32 kts 103°
2026-04-15 20:17 55.57386 -3.26677 1138 ft 132 kts 65°
2026-04-15 20:18 55.58110 -3.26430 1131 ft 66 kts 209°
2026-04-15 20:18 55.58247 -3.26405 1004 ft 16 kts 208°
2026-04-15 20:18 55.58139 -3.26499 847 ft 1 kts 207°
2026-04-15 20:18 55.58142 -3.26496 844 ft 0 kts 207°
2026-04-15 20:30 55.58140 -3.26497 855 ft 0 kts 207°
2026-04-15 20:30 55.58128 -3.26506 865 ft 6 kts 207°
2026-04-15 20:31 55.58117 -3.26517 844 ft 1 kts 208°
2026-04-15 20:31 55.58119 -3.26562 850 ft 3 kts 249°
2026-04-15 20:31 55.58119 -3.26566 850 ft 1 kts 232°
2026-04-15 20:31 55.58200 -3.26396 846 ft 44 kts 222°